Location: Gazon
(48.1318°N, 1.2708°W)
Time: 23:09:18
(UTC+00:00)

Cosmos 1125 Rocket - Pass Details

Date: 18 September 2020
Orbit: 758 x 780 km, 74.0° (Epoch: 25 October)

Event Time Altitude Azimuth Distance (km) Brightness Sun altitude
Rises 20:37:52 0° 203° (SSW) 3,245 6.7 -24.1°
Reaches altitude 10° 20:40:14 10° 205° (SSW) 2,323 5.9 -24.4°
Maximum altitude 20:45:32 82° 292° (WNW) 793 3.5 -25.1°
Drops below altitude 10° 20:50:53 10° 21° (NNE) 2,344 6.2 -25.9°
Sets 20:53:17 0° 23° (NNE) 3,275 6.9 -26.2°
